990708 349 (2.1+  0.2+)   000401 349  0.9-  0.6-    010313 360  0.0   0.9+  

990709 351 (0.0   2.4+)   000401 903  0.3-  0.4-    010314 699  1.3+  0.0   

990709 351 (2.8+  0.5+)   000401 903  0.9-  0.2+    010314 699  1.5+  0.1-  

990710 903  0.1-  1.5+    000401 903  0.3+  0.2-    010314 699  1.2+  0.7+  

990710 903  0.5-  0.5+    000401 610  0.2+  0.6+    010314 699  1.4+  0.9+  

990714 360  0.3+  0.5+    000401 610  0.0   0.4+    010318 927 (5.0-  0.7+) 

990714 360  0.4+  0.6+    000401 610  0.3-  0.2+    010318 927  0.4-  1.6-  

990714 372  0.2-  1.3+    000401 610  0.5-  0.1+    010318 927  1.2-  0.6+  

990715 071  0.4+  0.1+    000403 367  0.4-  0.1+    010318 704  1.4+  0.7+  

990715 071  0.7+  0.4-    000403 367  0.8-  0.2-    010318 704  1.2+  1.0+  

990715 071  0.7+  0.3-    000403 367  1.0-  0.0     010318 704  0.1+  1.4+  

990716 071  0.7+  0.1+    000405 170  0.5-  0.4+    010318 608  0.3+  0.0   

990716 071  0.2+  0.2+    000405 170  0.2-  0.1+    010318 704  0.1-  0.3+  

990717 138 (1.5+  3.4-)   000405 170  0.7-  0.0     010318 608  0.5-  0.6-  

990717 138 (0.0   2.2-)   000406 300  1.0-  0.8+    010318 704  0.1-  1.4+  

990717 138 (1.6-  7.9+)   000406 300  0.3+  0.2-    010318 608  1.0-  0.2-  

990720 762  1.9+  0.7-    000406 300  1.3-  0.4-    010318 349  0.2-  0.4+  

990720 762  0.2-  0.6+    000406 351  1.3-  0.8-    010318 349  0.8-  0.3-  

990720 762  0.2-  0.6+    000406 351  0.1-  0.2-    010319 927 (2.4-  0.6-) 

990720 762  0.1-  0.6+    000406 351  0.6+  1.0+    010319 927  1.1-  1.9+  

990721 900  0.9-  0.9-    000406 900  0.4-  0.0     010319 927 (3.5+  2.0+) 

990721 900  0.1+  0.3-    000406 900  0.4-  0.3+    010319 352  0.3+  1.6+  

990722 402  0.1+  0.3+    000406 611  0.1+  0.2-    010319 352  0.6-  1.2-  

990722 402  0.3+  0.2-    000406 611  0.5-  0.8+    010324 704 (0.1+  2.0+) 

990722 402  0.4+  0.1-    000406 170  0.5-  0.2-    010324 704 (0.2-  2.0+) 

990723 848  0.2+  0.1+    000406 170  0.8-  0.3-    010324 704  0.3+  1.3+  

990723 848  0.4+  0.3+    000406 170  0.2-  0.3+    010324 704  0.0   0.8+  

990723 848  0.7+  0.1+    000407 349  1.0-  0.4-    010329 699 (2.3+  0.1+) 

990724 900  0.2-  0.7+    000407 349  0.8-  0.4-    010329 699  1.8+  0.5+  

990724 900  0.2+  0.4+    000407 349  0.4-  0.5+    010329 699  0.0   0.1-  

990727 118  0.3-  0.9+    000410 699 (3.0+  2.6-)   010329 699  1.2+  0.1+  

990727 118  0.4+  0.1+    000410 699 (2.8+  2.9-)   010331 704  1.2+  1.5+  

990730 349  0.1+  1.2-    000410 699  1.9+  1.7-    010331 704  0.4+  0.5+  

990730 349  0.8+  0.3-    000410 699 (4.4+  2.6-)   010331 704  0.2-  0.8+  

990731 349  0.0   0.7+    000411 012  0.4-  0.1+    010331 704  0.1-  0.8+  

990731 897  0.2+  0.5-    000411 012  0.1-  0.4+    010331 704  0.8-  1.4+  

990731 349  1.0+  0.9-    000411 012  0.4-  0.1-    010401 170  1.2-  0.6+  

990731 897  0.1+  0.3-    000411 012  0.5-  0.1+    010401 170  1.5-  0.2-  

990731 349  0.2+  0.2-    000411 012  0.6-  0.0     010410 170  1.7+  0.9+  

990801 762  0.1-  0.0     000411 012  0.3-  0.0     010421 170  1.4-  1.3+  

990801 762  0.2-  1.0+    000411 351  0.2+  0.0     010426 360  0.0   1.4+  

990801 762  0.4+  1.4+    000411 351  1.2-  0.4-    010426 360  0.8+  1.0+  

990801 762  1.2+  1.0+    000411 349  0.3-  0.5-    

990802 762  0.2-  0.4-    000411 349  0.7-  0.8-    



NAKANO

         **** Don't distribute anyone except personal use only ****

                (C) Copyright 2001 OAA/ComputingSection

write mail from CFAD0::NAKANO on 2001-05-16 16:29:52(JST).

 

    C/1999 H3 (LINEAR) 

Epoch 1999 Aug. 10.0 TT = JDT 2451400.5  

T 1999 Aug. 18.23396 TT                                 Nakano

q   3.5008679            (2000.0)            P               Q

z  -0.0008061      Peri.  101.91126     -0.37889492     -0.82844080

 +/-0.0000008      Node   332.72356     -0.61129100     +0.55866469

e   1.0028220      Incl.  115.84027     +0.69481073     +0.03974419

From 780 observations 1999 Apr. 22-2001 Mar. 29, mean residual 0".71.



NAKANO

         **** Don't distribute anyone except personal use only ****

                (C) Copyright 2001 OAA/ComputingSection

write mail from CFAD0::NAKANO on 2001-04-07 01:11:26(JST).

 





*** Some nongravitational effects are seen in the last observations ***



    C/1999 H3 (LINEAR)                                                    

Epoch 1999 Aug. 10.0 TT = JDT 2451400.5  

T 1999 Aug. 18.23662 TT                                 Nakano

q   3.5008613            (2000.0)            P               Q

z  -0.0007999      Peri.  101.91180     -0.37890242     -0.82843786

 +/-0.0000009      Node   332.72363     -0.61128616     +0.55866955

e   1.0028003      Incl.  115.84027     +0.69481090     +0.03973722



NAKANO

         **** Don't distribute anyone except personal use only ****

                (C) Copyright 2001 OAA/ComputingSection

write mail from CFAD0::NAKANO on 2001-01-07 02:42:24(JST).

 

    C/1999 H3 (LINEAR)                                                    

Epoch 1999 Aug. 10.0 TT = JDT 2451400.5  

T 1999 Aug. 18.23788 TT                                 Nakano

q   3.5008587            (2000.0)            P               Q

z  -0.0007974      Peri.  101.91206     -0.37890597     -0.82843655

 +/-0.0000009      Node   332.72368     -0.61128392     +0.55867173

e   1.0027916      Incl.  115.84027     +0.69481093     +0.03973381

From 679 observations 1999 Apr. 22-2000 Dec. 5, mean residual 0".69.



NAKANO

         **** Don't distribute anyone except personal use only ****

                (C) Copyright 2000 OAA/ComputingSection

write mail from CFAD0::NAKANO on 2000-12-10 03:26:06(JST).

 



◎C/1999 H3の軌道と予報位置です

 上尾の門田健一氏は,7月8日の同氏の観測以来,途絶えていたこの彗星

の観測に11月25日と28日に成功しました. 氏の CCD全光度は,それぞれ,

16.9等と16.8等でした.これの彗星も,軌道離心率が少し大きい目の彗星で

すが,(1/a)org.= +0.000067,(1/a)fut.= -0.000008,L= 8と,原初軌道の

aの逆数は,プラスとなります.



    C/1999 H3 (LINEAR) 

Epoch 1999 Aug. 10.0 TT = JDT 2451400.5  

T 1999 Aug. 18.23983 TT                                 Nakano

q   3.5008565            (2000.0)            P               Q

z  -0.0007945      Peri.  101.91246     -0.37891140     -0.82843440

 +/-0.0000009      Node   332.72373     -0.61128023     +0.55867529

e   1.0027813      Incl.  115.84026     +0.69481122     +0.03972867

From 652 observations 1999 Apr. 22-2000 Nov. 28, mean residual 0".62.

 

Date/        TT  R.A.(2000) Decl.     Delta   r     Daily motion  Mag.  Moon Age

              h    h  m       。  ,                      ,  / PA 。  m1      。

2000 Dec.  1 19  11 13.35  +09 56.5   5.429  5.424     4.5 / 233  16.0  149  .28

           2 19  11 13.11  +09 53.8   5.417  5.431     4.6 / 235  16.0  160  .37

           3 19  11 12.86  +09 51.1   5.405  5.437     4.7 / 237  16.0  172  .46

           4 19  11 12.59  +09 48.5   5.393  5.443     4.8 / 239  16.0  175  .56

           5 19  11 12.31  +09 46.0   5.381  5.449     5.0 / 240  16.0  163  .66

           6 19  11 12.02  +09 43.6   5.370  5.456     5.1 / 242  16.0  150  .75

           7 19  11 11.72  +09 41.2   5.358  5.462     5.3 / 244  16.0  137  .84

           8 19  11 11.40  +09 38.9   5.346  5.468     5.4 / 245  16.0  123  .91

           9 19  11 11.06  +09 36.6   5.334  5.474     5.6 / 247  16.0  109  .96

          10 19  11 10.72  +09 34.4   5.322  5.481     5.7 / 248  16.0   94  .99

          11 19  11 10.36  +09 32.3   5.310  5.487     5.9 / 249  16.0   79 1.00

          12 19  11 09.98  +09 30.2   5.298  5.493     6.1 / 251  16.0   64  .97

          13 19  11 09.60  +09 28.2   5.286  5.499     6.2 / 252  16.0   49  .92

          14 19  11 09.19  +09 26.3   5.275  5.506     6.4 / 253  16.0   34  .84

          15 19  11 08.78  +09 24.4   5.263  5.512     6.6 / 254  16.0   20  .74

          16 19  11 08.35  +09 22.6   5.251  5.518     6.8 / 255  16.0    5  .64

          17 19  11 07.91  +09 20.8   5.240  5.525     7.0 / 256  16.0    9  .53

          18 19  11 07.45  +09 19.1   5.228  5.531     7.2 / 257  16.0   22  .42

          19 19  11 06.98  +09 17.5   5.217  5.537     7.4 / 258  16.0   36  .31

          20 19  11 06.49  +09 16.0   5.205  5.543     7.6 / 259  16.0   49  .22

          21 19  11 05.99  +09 14.5   5.194  5.550     7.8 / 259  16.0   62  .14

          22 19  11 05.48  +09 13.0   5.183  5.556     7.9 / 260  16.0   74  .08

          23 19  11 04.95  +09 11.7   5.172  5.562     8.1 / 261  16.0   87  .04

          24 19  11 04.40  +09 10.4   5.161  5.569     8.3 / 261  16.0   99  .01

          25 19  11 03.85  +09 09.1   5.150  5.575     8.5 / 262  16.0  111  .00

          26 19  11 03.27  +09 07.9   5.140  5.581     8.7 / 263  16.0  123  .01

          27 19  11 02.69  +09 06.8   5.129  5.587     9.0 / 263  16.0  135  .04

          28 19  11 02.09  +09 05.8   5.119  5.594     9.2 / 264  16.0  147  .08

          29 19  11 01.47  +09 04.8   5.108  5.600     9.4 / 264  16.0  159  .14

          30 19  11 00.85  +09 03.8   5.098  5.606     9.6 / 265  16.0  171  .21

          31 19  11 00.20  +09 02.9   5.088  5.613     9.8 / 265  16.0  176  .30

2001 Jan.  1 19  10 59.55  +09 02.1   5.079  5.619    10.0 / 266  16.0  164  .39

           2 19  10 58.88  +09 01.4   5.069  5.625    10.2 / 266  16.0  152  .48

           3 19  10 58.19  +09 00.6   5.060  5.632    10.4 / 266  16.0  139  .59

           4 19  10 57.50  +09 00.0   5.051  5.638    10.5 / 267  16.0  126  .69

           5 19  10 56.79  +08 59.4   5.042  5.644    10.7 / 267  16.0  112  .78

           6 19  10 56.06  +08 58.9   5.033  5.651    10.9 / 267  16.0   98  .87

           7 19  10 55.32  +08 58.4   5.024  5.657    11.1 / 268  16.0   83  .94

           8 19  10 54.57  +08 58.0   5.016  5.663    11.3 / 268  16.0   68  .98

           9 19  10 53.81  +08 57.6   5.008  5.670    11.5 / 268  16.0   53 1.00

          10 19  10 53.03  +08 57.3   5.000  5.676    11.7 / 269  16.0   37  .99

